Montana Department of Transportation

Main Content

Accidents and Incidents Report

Hourly Weather Roundup

ASUS45 KTFX 141210

RWRMT 

Montana Regional Weather Roundup

National Weather Service Great Falls MT

500 AM MST SAT DEC 14 2019



NOTE: "FAIR" indicates few or no clouds below 12,000 feet with no

significant weather and/or obstructions to visibility.



MTZ001.007-043-141300-

West of the divide

  

CITY           SKY/WX    TMP DP  RH WIND       PRES   REMARKS

Kalispell      CLOUDY    29  26  89 CALM      29.82S                  

Missoula       CLOUDY    29  28  96 CALM      29.83S FOG              

Butte          FAIR       4   0  83 S5        29.77F                  

Anaconda         N/A     21  16  79 SW6       29.76S WCI  14          

Deer Lodge       N/A     21  18  86 CALM      29.80F                  

Hamilton       CLOUDY    27  25  93 CALM      29.83S                  

Mullan Pass    SNOW      25  19  78 NW6       29.74F VSB 1/2 WCI  18  

Ronan          FOG       30  30 100 CALM      29.83S VSB 1/2          

--------------------------------



MTZ008-052.055-141300-

Southwest Montana

  

CITY           SKY/WX    TMP DP  RH WIND       PRES   REMARKS

Bozeman        FAIR      17  13  84 S8        29.77F WCI   7          

Dillon         FAIR      15  12  88 S8        29.75F WCI   4          

Ennis          PTCLDY    18  14  86 CALM      29.79S                  

W Yellowstone  FOG       12  12 100 CALM      29.71F VSB 1/2          

--------------------------------



MTZ009-010-012-014-046-048-049-054-141300-

East Slopes and Central Montana

  

CITY           SKY/WX    TMP DP  RH WIND       PRES   REMARKS

Cut Bank       CLOUDY    18  13  80 CALM      29.75F HAZE             

Great Falls    FAIR      13   9  84 S5        29.78F                  

Helena         CLOUDY    30  17  58 W8        29.77F WCI  22          

Malmstrom AFB  FAIR      11  10  97 CALM      29.81S                  

Augusta        MOCLDY    18  15  88 CALM      29.73F                  

Bowmans Corner MOCLDY    24  19  81 SW6       29.73S WCI  17          

Choteau          N/A     19  18  93 SW7       29.75F FOG     WCI  10  

Fairfield      FOG       17  15  90 CALM      29.76F VSB 3/8          

Power          MOCLDY    14  13  95 SW3       29.76F                  

Raynesford     MOCLDY    12  11  95 CALM      29.77S                  

Ulm            CLOUDY    16  15  98 CALM      29.79F FOG              

White Sulphur    N/A     19  14  79 CALM      29.72S                  

--------------------------------



MTZ011-013-016-021-045-047-050-051-141300-

North Central Montana

  

CITY           SKY/WX    TMP DP  RH WIND       PRES   REMARKS

Havre          LGT SNOW  10   6  84 E6        29.87R FOG     WCI   0  

Lewistown      FAIR      13  10  88 SE6       29.74F WCI   4          

Chinook          N/A      9   5  85 E9        29.90F WCI  -5          

Denton         SNOWSHWR  11   9  91 CALM      29.75F                  

Fort Benton      N/A      7   3  85 SW3       29.85F                  

Geyser         MOCLDY    12  10  92 CALM      29.75F                  

Grass Range    FOG       10   9  95 CALM      29.74F VSB 3/8          

Judith Gap     FAIR      23  15  72 CALM      29.72F                  

N Bar Ranch    MOCLDY    14  10  85 CALM      29.75F                  

Roy            SNOWSHWR   9   6  87 S7        29.78F VSB 5/8 WCI  -3  

Stanford       FAIR      18  13  81 CALM      29.73F                  

Winifred       FOG        9   7  91 CALM      29.77F VSB 3/8          

--------------------------------



MTZ017.020-022.027-061-062-141300-

Northeast Montana

  

CITY           SKY/WX    TMP DP  RH WIND       PRES   REMARKS

Glasgow        CLOUDY     2  -4  76 SE13      29.92F WCI -15          

Circle           N/A      3   0  85 E6        29.90  WCI  -8          

Culbertson       N/A      1  -4  78 E8        30.01S WCI -12          

Glendive       FLURRIES   2  -1  88 NE8       29.94F WCI -12          

Jordan           N/A      9   5  84 E5        29.88F                  

Malta          CLOUDY     7   3  85 E6        29.91S WCI  -3Poplar           N/A      1  -4  78 E7        30.00S WCI -11          

Sidney         FLURRIES   2  -3  80 N6        30.01F WCI  -9          

Wolf Point     CLOUDY     2  -4  76 E9        30.00F WCI -13          

--------------------------------



MTZ028.42-056.058-141300-

Southcentral and southeast Montana

  

CITY           SKY/WX    TMP DP  RH WIND       PRES   REMARKS

Baker          MIX PCPN  11   7  84 E12       29.87F WCI  -3          

Big Timber     CLEAR     23  18  80 W8        29.76S WCI  14          

Billings       FOG       28  24  85 CALM      29.78F VSB 1/4          

Forsyth          N/A     16  12  86 E6        29.86S WCI   7          

Hardin         FOG       21  19  93 N5        29.81  VSB 1/4          

Harlowton      FAIR      22  18  82 W14       29.74S WCI  10          

Laurel           N/A     25  25 100 S3        29.79F FOG              

Livingston     MOCLDY    23  15  71 NW7       29.75F WCI  15          

Miles City     CLOUDY    12   9  87 NE12      29.86F WCI  -2          

--------------------------------



Regional Reports...Dakotas/MN

  

CITY           SKY/WX    TMP DP  RH WIND       PRES   REMARKS

Williston      CLOUDY    -2  -6  83 NE6       29.97F WCI -14          

Minot          CLOUDY    -7 -13  75 N7        30.06F HAZE    WCI -21  

Dickinson      CLOUDY     1  -3  83 E8        29.92F WCI -13          

Beach          LGT SNOW   3   1  92 E7        29.92S WCI  -9          

Crosby         CLOUDY   -11 -15  84 CALM      30.05S                  

Hettinger      LGT SNOW   5   2  87 E9        29.92F FOG     WCI  -9  

Tioga          CLOUDY    -4  -8  84 E5        30.01F                  

Watford City   MOCLDY    -2  -6  84 CALM      30.01F                  

Bismarck       CLOUDY    -3  -8  79 VRB5      30.09R                  

Grand Forks    CLOUDY    -6 -10  83 N16       30.09R FOG     WCI -28  

Fargo          MOCLDY    -6 -10  83 N12       30.06  WCI -25          

Buffalo SD       N/A     13   8  81 NE12      29.84F WCI  -1          

Rapid City     CLOUDY    20  18  92 SE13      29.84F FOG     WCI   7  

Intl Falls     CLOUDY     4   0  83 NW13      29.87R WCI -13          

Duluth         FLURRIES  16  11  80 NW13G22   29.74R WCI   2          

Minneapolis    CLOUDY    19  13  77 NW12      29.87R WCI   7          

--------------------------------



Regional Reports...WY/ID/WA

  

CITY           SKY/WX    TMP DP  RH WIND       PRES   REMARKS

Buffalo WY     CLOUDY    27  16  63 SW3       29.71F                  

Cody           CLOUDY    28  19  69 SW3       29.72F                  

Gillette       FAIR      22  20  92 S5        29.75F                  

Powell         CLOUDY    27  19  74 CALM      29.71F                  

Sheridan       CLOUDY    24  21  88 CALM      29.75F                  

Yellowstone La   N/A     10   7  87 CALM      29.70F                  

Boise          LGT SNOW  34  33  96 NW9       29.88R FOG     WCI  27  

Couer d'Alene  CLOUDY    32  30  93 CALM      29.90S FOG              

Idaho Falls    CLOUDY    25  22  88 N7        29.77F WCI  17          

Salmon         CLOUDY    22  20  92 CALM      29.85S                  

Spokane        CLOUDY    32  30  92 W3        29.90S                  

Seattle        CLOUDY    44  40  85 CALM      30.00S                  

--------------------------------



Regional Reports...Alberta

  

CITY           SKY/WX    TMP DP  RH WIND       PRES   REMARKS

Calgary        MOCLDY    12   9  85 CALM      29.75F                  

Cardston         N/A     18  14  86 S7          N/A  WCI   8          

Crowsnest Pass   N/A      9   7  92 SW1         N/A                   

Del Bonita       N/A     23  19  86 W9          N/A  WCI  13          

Edmonton       CLOUDY     5   3  92 W3        29.82F                  

Fort McMurray  CLOUDY    -2  -8  78 SE10      29.83F WCI -19          

High Level     CLOUDY    -8 -11  84 VRB2      29.77F                  

Lethbridge     CLOUDY     5   1  85 S7        29.77F WCI  -7          

Lloydminster   FLURRIES  -4  -8  84 S7        29.88F WCI -18          

Medicine Hat   CLOUDY     7   3  85 VRB2      29.86F                  

Milk River       N/A      9   7  92 SE8         N/A  WCI  -4          

Onefour          N/A      7   5  92 E12         N/A  WCI  -9          

Peace River    MOCLDY     1  -2  85 SW12      29.77F WCI -15          

Pincher Creek  CLEAR     16  12  86 W13       29.73F WCI   2          

Raymond          N/A      7   5  92 S6          N/A  WCI  -3          

Waterton Gate    N/A     28  18  64 SW12        N/A  WCI  18          

Fort Smith NWT FLURRIES -15 -20  76 VRB2      29.85F                  

--------------------------------



Regional Reports...Saskatchewan

  

CITY           SKY/WX    TMP DP  RH WIND       PRES   REMARKS

Assiniboia       N/A     -4  -9  77 SE7         N/A  WCI -18          

Coronach         N/A      1  -2  85 SE7         N/A  WCI -11          

Cypress Hills    N/A      3   0  85 SW3         N/A                   

Estevan        CLOUDY   -13 -17  84 S3        30.04F                  

La Ronge         N/A    -29 -36  68 SW1         N/A                   

Moose Jaw        N/A    -15 -20  76 SE3         N/A                   

Prince Albert  CRYSTALS -31 -38  68 CALM      30.10F                  

Regina         PTCLDY   -17 -22  76 SE7       30.03F WCI -33          

Rockglen         N/A      1  -4  78 S6          N/A  WCI -10          

Saskatoon      PTCLDY   -13 -18  77 S6        30.03F WCI -27          

Swift Current  FLURRIES   1  -4  78 S9        29.85F WCI -14          

Uranium City     N/A    -31 -36  75 E3          N/A                   

Val Marie        N/A      5   0  78 SE8         N/A  WCI  -8          

--------------------------------